Location: Chicago
(41.8500°N, 87.6500°W)
Time: 10:06:34
(UTC-05:00)

ISS - Visible Passes

Search period start: 23 July 2016 00:00
Search period end: 02 August 2016 00:00
Orbit: 401 x 404 km, 51.6° (Epoch: 23 July)

Date Brightness Start Highest point End Pass type
(mag) Time Alt. Az. Time Alt. Az. Time Alt. Az.
23 Jul -0.5 01:39:51 17° NNW 01:40:06 17° NNW 01:42:22 10° NNE visible
23 Jul -0.2 03:15:20 10° NNW 03:17:28 16° N 03:19:37 10° NE visible
23 Jul -1.9 04:51:25 10° NW 04:54:33 41° NNE 04:57:40 10° E visible
24 Jul -0.3 00:48:32 15° NNE 00:48:32 15° NNE 00:49:33 10° NE visible
24 Jul -0.1 02:22:18 10° NW 02:24:16 15° N 02:26:13 10° NE visible
24 Jul -1.1 03:58:38 10° NW 04:01:30 27° NNE 04:04:21 10° E visible
25 Jul -0.2 01:29:42 12° NNW 01:31:02 15° N 01:33:00 10° NNE visible
25 Jul -0.6 03:05:50 10° NW 03:08:22 20° NNE 03:10:54 10° ENE visible
25 Jul -3.3 04:41:54 10° NW 04:45:10 88° NE 04:48:26 10° SE visible
25 Jul -2.1 21:21:58 10° S 21:24:31 21° SE 21:25:55 16° E visible
25 Jul -1.3 22:57:37 10° WSW 23:05:22 - NE 22:59:02 22° W visible
26 Jul -0.3 00:37:51 16° N 00:37:51 16° N 00:39:59 10° NNE visible
26 Jul -0.3 02:12:58 10° NNW 02:15:10 17° N 02:17:23 10° NE visible
26 Jul -2.3 03:49:01 10° NW 03:52:11 48° NNE 03:55:21 10° ESE visible
26 Jul -3.4 22:04:31 10° WSW 22:07:46 83° NW 22:11:02 10° NE visible
26 Jul -0.6 23:42:05 10° WNW 23:44:35 20° NNW 23:47:06 10° NE visible
27 Jul -0.1 01:19:56 10° NNW 01:21:56 15° N 01:23:55 10° NE visible
27 Jul -1.4 02:56:10 10° NW 02:59:08 30° NNE 03:02:03 10° E visible
27 Jul -2.9 04:32:31 10° WNW 04:35:36 39° SW 04:38:39 10° SSE visible
27 Jul -3.2 21:11:41 10° SW 21:14:50 50° SE 21:18:01 10° ENE visible
27 Jul -1.1 22:48:35 10° W 22:51:25 27° NNW 22:54:15 10° NE visible
28 Jul -0.1 00:26:43 10° NW 00:28:39 15° N 00:30:04 12° NNE visible
28 Jul -0.3 02:08:03 13° ENE 02:08:03 13° ENE 02:08:36 10° ENE visible
28 Jul -3.5 03:41:10 29° WNW 03:42:42 78° SW 03:45:56 10° SE visible
28 Jul -1.9 21:55:12 10° W 21:58:18 40° NNW 22:01:24 10° NE visible
28 Jul -0.2 23:33:16 10° NW 23:35:23 16° N 23:37:29 10° NNE visible
29 Jul 0.0 01:10:27 10° NNW 01:10:38 11° NNW 01:10:38 11° NNW visible
29 Jul -3.0 21:02:00 10° WSW 21:05:15 70° NNW 21:08:29 10° NE visible
29 Jul -0.5 22:39:42 10° WNW 22:42:07 19° NNW 22:44:32 10° NNE visible
30 Jul -0.2 00:17:26 10° NNW 00:19:08 15° N 00:19:08 15° N visible
30 Jul -0.9 21:46:09 10° WNW 21:48:53 24° NNW 21:51:38 10° NE visible
30 Jul -0.3 23:24:14 10° NW 23:26:10 15° N 23:27:43 11° NNE visible
31 Jul -1.6 20:52:40 10° W 20:55:43 35° NNW 20:58:45 10° NE visible
31 Jul -0.3 22:30:48 10° NW 22:32:51 15° N 22:34:54 10° NNE visible
01 Aug -0.2 00:07:49 10° NNW 00:08:54 15° NNW 00:08:54 15° NNW visible
01 Aug -0.5 21:37:12 10° WNW 21:39:32 18° NNW 21:41:51 10° NNE visible
01 Aug -0.5 23:14:49 10° NNW 23:16:54 16° N 23:17:31 15° NNE visible
